Overview Statistics Trail Chart Weather Telemetry Raw packets
 

This is the latest recevied weather packets stored in our database for station/object WX6HNX-14. If no packets are shown the sender has not sent any weather packets the latest 10 day(s).

<< 24 25 26 27 28 29 30 >>
Time Temp. Humidity Pressure Rain* Wind** Luminosity Snow
1777593194 28.33° C 31% 1010.3 hPa 0 mm - - -
1777592894 27.78° C 31% 1010.3 hPa 0 mm - - -
1777592594 28.33° C 31% 1010.3 hPa 0 mm - - -
1777592295 27.78° C 32% 1010.2 hPa 0 mm - - -
1777591694 27.78° C 32% 1010.4 hPa 0 mm - - -
1777591394 28.33° C 32% 1010.4 hPa 0 mm - - -
1777591094 27.78° C 32% 1010.4 hPa 0 mm - - -
1777590794 27.78° C 33% 1010.5 hPa 0 mm - - -
1777590494 27.78° C 33% 1010.5 hPa 0 mm - - -
1777589817 28.33° C 32% 1010.6 hPa 0 mm - - -
1777589443 27.78° C 33% 1010.7 hPa 0 mm - - -
1777588843 27.78° C 33% 1010.7 hPa 0 mm - - -
1777588544 27.22° C 33% 1010.8 hPa 0 mm - - -
1777588243 27.78° C 34% 1010.9 hPa 0 mm - - -
1777587943 27.22° C 34% 1011 hPa 0 mm - - -
1777587643 27.22° C 34% 1011 hPa 0 mm - - -
1777587343 27.22° C 35% 1011 hPa 0 mm - - -
1777587043 27.78° C 34% 1011.1 hPa 0 mm - - -
1777586744 27.22° C 34% 1011.2 hPa 0 mm - - -
1777586445 27.22° C 34% 1011.3 hPa 0 mm - - -
1777586143 27.78° C 34% 1011.4 hPa 0 mm - - -
1777585345 27.22° C 34% 1011.6 hPa 0 mm - - -
1777403609 19.44° C 52% 1019 hPa 0 mm - - -
1777403078 18.89° C 52% 1019.2 hPa 0 mm - - -
1777402474 18.89° C 51% 1019.3 hPa 0 mm - - -

* Rain latest hour (hover to see other rain measurements)
** Current wind speed in m/s (hover to see current wind gust speed)